Lid_Strength_Index
9 11 10 11 11 11 11 11 11 10 9 11 10 10 9 7 7 7 7 7 6 6 5 4 4 4 4 4 4 5 6 5 5 4 4 4 4 4 3 3 3 3 2 2
9 10 10 10 10 10 10 11 11 10 10 11 10 10 9 7 7 7 6 6 6 6 6 5 4 4 4 4 4 5 6 6 5 5 4 4 4 4 4 3 3 2 2 1
9 10 9 9 10 11 11 12 12 12 10 9 10 10 8 8 7 7 6 6 6 6 5 5 4 4 3 4 4 5 6 6 6 5 4 4 4 4 4 4 3 2 2 1
10 9 10 10 11 11 12 11 11 11 11 13 10 13 9 8 8 8 7 6 6 5 5 5 4 4 4 4 4 4 5 6 6 5 5 5 6 6 5 5 4 3 2 1
11 11 11 11 11 10 11 10 10 11 12 12 12 15 10 9 9 8 7 7 6 5 5 5 5 4 4 4 4 3 5 6 6 6 5 5 5 5 5 5 4 4 3 2
10 9 9 10 9 9 9 10 10 11 12 18 13 14 13 10 9 8 7 6 6 5 5 4 4 4 4 3 3 3 4 6 6 7 5 4 5 5 5 5 5 4 3 3
11 10 8 8 10 9 9 13 17 19 19 17 13 14 12 8 8 7 7 6 6 5 5 4 5 5 4 4 3 3 4 6 7 7 6 5 5 5 5 5 5 5 5 4
13 15 10 8 10 11 11 12 15 18 15 14 13 15 11 8 8 7 7 6 5 5 5 5 5 4 4 4 3 3 4 6 7 7 7 5 5 5 5 4 5 5 5 5
13 13 9 9 8 9 11 12 11 14 13 15 12 11 9 8 9 8 7 6 6 6 6 6 5 4 4 4 4 3 4 5 6 7 8 7 6 5 5 5 5 5 5 5
11 14 11 9 8 8 10 10 13 13 17 17 13 13 14 11 9 8 8 8 8 7 7 7 7 6 5 5 4 4 4 5 6 7 8 8 8 6 6 5 5 5 6 6
10 12 12 11 11 11 12 12 12 13 14 16 16 14 10 12 9 9 10 9 8 8 8 7 7 6 6 6 6 6 5 6 6 7 8 9 9 7 6 7 6 6 7 7
10 12 14 13 10 10 10 11 11 14 15 14 15 14 10 9 9 9 9 8 8 8 7 7 6 6 6 6 6 6 6 6 6 7 8 9 9 9 8 8 7 8 8 8
10 13 15 14 13 12 13 11 11 12 13 15 16 13 9 9 9 9 9 8 8 7 8 7 7 7 7 7 7 7 7 7 7 7 8 9 9 9 9 9 9 8 9 9
9 12 14 15 15 13 14 13 12 12 14 15 14 13 11 10 10 9 9 8 8 8 8 8 7 7 6 6 6 7 7 7 7 8 8 9 10 10 10 10 10 10 11 11
10 14 13 13 12 13 13 14 13 14 13 15 13 13 11 11 10 10 9 9 8 8 8 8 7 7 7 6 6 6 7 7 8 9 9 9 9 10 10 11 11 11 11 11
10 14 13 15 12 13 15 13 13 13 13 13 13 13 10 10 10 10 10 9 10 10 10 9 8 8 7 7 7 7 7 8 8 10 10 9 9 10 10 11 11 11 11 11
12 13 14 16 15 15 16 14 14 14 13 14 16 14 12 12 12 12 11 11 11 10 10 10 9 9 10 10 9 9 9 9 10 10 11 11 12 12 12 12 12 12 12 12
13 14 15 17 16 20 15 14 15 15 14 14 14 14 13 13 12 12 11 12 11 11 11 10 10 10 10 9 9 9 9 10 11 11 11 11 12 13 13 14 14 13 12 12
12 14 16 19 18 16 15 16 16 16 16 14 14 13 13 12 12 12 10 10 10 10 10 10 9 9 9 9 9 9 9 10 10 10 10 11 11 12 12 13 14 14 14 14
14 14 16 17 20 19 16 14 13 13 17 13 13 12 12 12 14 12 10 10 10 9 9 9 9 9 9 9 9 9 10 10 10 9 9 10 10 11 12 13 13 13 14 15
17 16 17 17 18 15 12 12 12 17 16 12 12 12 12 13 12 11 10 10 10 10 10 10 10 10 10 9 9 10 10 10 10 9 9 9 10 11 11 11 12 12 13 14
16 16 17 16 17 19 11 13 15 12 11 11 11 11 11 11 11 10 10 10 10 10 10 10 10 10 9 9 9 10 10 9 9 9 10 10 10 10 11 11 11 12 13 14
16 13 14 14 14 11 11 11 10 10 11 10 10 10 10 11 11 11 11 11 11 11 10 10 10 10 10 9 10 11 10 10 10 10 10 9 9 10 10 11 11 12 13 14
12 11 14 13 11 10 9 8 9 9 10 9 9 9 10 11 11 11 10 11 11 10 10 10 10 10 10 9 9 9 9 9 9 9 9 9 9 9 9 10 11 11 12 13
10 11 12 12 10 9 9 8 8 8 8 8 8 9 10 10 10 10 11 11 11 10 10 10 10 9 9 9 8 8 8 8 9 9 9 8 8 8 9 9 10 11 10 11
9 10 12 13 9 9 9 8 7 8 8 8 9 9 9 9 10 11 11 11 10 10 10 10 9 9 9 8 7 7 6 7 8 8 8 7 8 7 8 9 9 8 9 9